Location: Keeble Observatory
(37.7625°N, 77.4755°W)
Time: 02:20:12
(UTC-04:00)

Daily predictions for brighter satellites

Satellite Brightness Start Highest point End
(mag) Time Altitude Azimuth Time Altitude Azimuth Time Altitude Azimuth
Cosmos 2333 Rocket 3.9 00:07:43 30° NNW 00:07:43 30° NNW 00:11:25 10° N
COSMOS 2455 4.4 00:02:53 10° NNW 00:06:25 30° NNE 00:06:25 30° NNE
Terra 4.5 00:12:27 15° NW 00:12:27 15° NW 00:13:34 10° NW
Cosmos 2237 Rocket 4.1 00:27:23 26° NNW 00:27:23 26° NNW 00:30:22 10° N
CENTAUR R/B 4.0 01:12:44 10° NW 01:17:32 39° WNW 01:17:32 39° WNW
USA 215 4.2 01:31:04 41° N 01:31:04 41° N 01:35:43 10° NW
SL-16 R/B 4.4 01:35:36 19° NNW 01:35:36 19° NNW 01:38:04 10° N
Cosmos 1943 Rocket 4.2 01:49:50 10° N 01:52:18 24° N 01:52:18 24° N
Cosmos 2369 Rocket 4.3 02:08:53 10° NNW 02:10:38 21° NNW 02:10:38 21° NNW
USA 229 DEB 4.3 03:01:39 10° NNW 03:08:44 58° NE 03:15:56 10° SE
USA 229 4.3 03:01:46 10° NNW 03:08:50 58° NE 03:16:01 10° SE
BREEZE M DEB (TANK) 4.5 03:10:46 29° NE 03:10:46 29° NE 03:16:04 10° E
COSMOS 2406 3.6 03:25:16 62° NNE 03:25:16 62° NNE 03:29:57 10° NNE
Cosmos 2123 Rocket 4.0 03:20:36 10° N 03:26:21 76° N 03:26:21 76° N
Resurs 1-4 Rocket 2.5 03:25:16 10° NNE 03:29:32 59° NNE 03:29:32 59° NNE
ADEOS Rocket 3.8 03:25:30 10° N 03:29:14 36° NNW 03:29:14 36° NNW
SL-16 R/B 2.4 03:33:18 82° NNW 03:33:18 82° NNW 03:39:16 10° NNW
Cosmos 1934 Rocket 4.3 03:37:07 52° NW 03:37:07 52° NW 03:42:08 10° N
Cosmos 1633 Rocket 4.4 03:36:29 10° N 03:40:27 36° ENE 03:40:27 36° ENE
ARIANE 5 R/B 2.7 03:37:18 10° NNE 03:41:55 69° NNE 03:41:55 69° NNE
CZ-2D R/B 2.3 03:42:38 10° N 03:47:15 62° NNW 03:47:15 62° NNW
Cosmos 1605 Rocket 4.0 03:53:59 64° W 03:54:06 64° W 04:00:29 10° N
BREEZE-M DEB (TANK) 4.4 03:56:34 50° SW 03:56:49 50° SW 04:16:22 10° SSE
Cosmos 1328 Rocket 4.2 04:00:51 49° E 04:00:57 49° E 04:05:09 10° NNE
Cosmos 2221 4.4 04:07:30 21° NW 04:07:30 21° NW 04:09:23 10° NNW
MOS 1 Rocket 4.0 04:04:07 10° N 04:07:17 40° NNW 04:07:17 40° NNW
Cosmos 2082 Rocket 3.6 04:07:33 20° SSE 04:10:28 32° ESE 04:15:23 10° NE
IRS-1D 4.1 04:06:02 10° N 04:10:29 42° WNW 04:10:29 42° WNW
Cosmos 773 Rocket 4.1 04:10:42 56° SSE 04:11:42 70° ESE 04:16:59 10° NNE
Cosmos 1666 Rocket 3.9 04:10:57 10° NNW 04:14:34 55° NW 04:14:34 55° NW
ADEOS II 3.3 04:12:40 10° NNE 04:17:31 37° E 04:21:15 16° SSE
Cosmos 1315 Rocket 4.0 04:16:10 10° NNW 04:18:35 34° NNW 04:18:35 34° NNW
OAO 1 4.4 04:20:08 62° SW 04:20:43 67° S 04:26:12 10° E
Cosmos 1726 3.7 04:22:35 25° NNW 04:22:35 25° NNW 04:24:30 10° N
Cosmos 1933 Rocket 4.4 04:19:51 10° N 04:24:11 48° E 04:27:55 13° SSE
PSLV R/B 4.3 04:25:14 42° ENE 04:25:14 42° ENE 04:27:41 10° E
COSMOS 2487 3.9 04:25:53 29° SE 04:26:35 32° ESE 04:29:47 10° NE
ADEOS 4.1 04:23:11 10° N 04:28:02 40° WNW 04:28:18 40° WNW
Tiangong 2 2.1 04:30:19 44° E 04:30:19 44° E 04:32:42 10° ENE
Cosmos 1151 Rocket 3.5 04:28:06 35° SSE 04:29:39 58° E 04:33:52 10° NNE
Cosmos 2100 Rocket 3.9 04:29:52 36° SSW 04:32:40 76° W 04:39:04 10° N
Cosmos 1802 Rocket 4.0 04:29:14 27° S 04:32:51 85° E 04:39:09 10° N
Cosmos 2369 4.1 04:36:20 10° NNW 04:41:58 65° ENE 04:47:34 10° SSE
CZ-2D R/B 4.0 04:38:17 10° N 04:41:45 38° WNW 04:41:45 38° WNW
MOZ.5/SAFIR/RUBIN 5/SL-8 4.4 04:42:46 35° W 04:42:46 35° W 04:46:32 10° NNW
Cosmos 1892 3.5 04:39:02 10° N 04:42:47 52° E 04:46:33 10° SSE
Okean O Rocket 2.9 04:39:13 10° NNE 04:43:19 37° E 04:47:22 10° SSE
Shenzhou-11 Module 2.3 04:43:41 63° N 04:43:41 63° N 04:46:34 10° ENE
UNKNOWN OBJECT B 3.8 04:40:32 10° N 04:43:54 32° WNW 04:43:54 32° WNW
Sich 1 4.3 04:42:53 10° NNW 04:45:33 26° WNW 04:45:33 26° WNW
In-Cosmos 22 Rocket 4.0 04:41:52 10° NNW 04:47:12 67° W 04:51:07 18° S
Lacrosse 5 2.8 04:43:28 10° NNW 04:48:25 50° NE 04:53:19 10° ESE
Meteor 2-10 4.5 04:47:50 35° SW 04:49:48 49° WNW 04:55:16 10° N
Hubble Space Telescope 2.2 04:53:56 22° S 04:53:56 22° S 04:57:04 10° SE
Meteor 1-27 4.1 04:50:57 19° S 04:55:07 86° W 05:00:45 10° N
Cosmos 2173 Rocket 4.2 04:52:39 27° SW 04:55:55 53° W 05:02:09 10° N
CZ-4B R/B 3.2 04:57:54 10° NNE 05:02:25 78° E 05:06:22 13° S
OAO 2 Rocket 4.0 05:01:51 27° SSW 05:03:53 40° SSE 05:08:31 10° E
NOSS 3-1 (A) 4.0 04:57:09 10° NW 05:04:57 74° WSW 05:13:26 10° SSE
Cosmos 1833 Rocket 2.6 05:01:08 21° SSW 05:05:04 86° WNW 05:10:45 10° NNE
Cosmos 1470 Rocket 3.9 05:03:49 10° NNW 05:07:54 42° W 05:10:11 23° SSW
Resurs 1-4 Rocket 4.1 05:07:44 10° NW 05:09:39 12° WNW 05:10:36 11° WNW
Cosmos 923 Rocket 4.1 05:08:51 23° SW 05:11:56 56° WNW 05:17:06 10° N
Cosmos 1515 Rocket 4.4 05:13:09 26° WSW 05:14:37 32° WNW 05:18:35 10° NNW
SL-16 R/B 4.4 05:18:24 11° W 05:18:24 11° W 05:19:08 10° WNW
Cosmos 2228 Rocket 4.3 05:16:58 22° W 05:18:10 25° WNW 05:21:50 10° NNW
Cosmos 1980 Rocket 3.5 05:17:51 10° N 05:23:13 44° ENE 05:28:32 10° SE
Cosmos 482 Debris 3.6 05:21:57 12° NW 05:24:19 72° SW 05:28:34 10° SE
USA 234 4.1 05:23:01 10° ENE 05:29:16 45° SE 05:35:28 10° SSW
Cosmos 1869 Rocket 3.8 05:25:30 10° N 05:29:58 75° E 05:34:24 10° SSE
Cosmos 1680 Rocket 3.8 05:26:01 15° SW 05:30:12 50° WNW 05:35:24 10° N
Timation 2 Rocket 4.2 05:24:51 10° SSW 05:30:46 71° ESE 05:36:52 10° NNE
Cosmos 2278 3.9 05:25:30 10° NNW 05:30:55 48° WSW 05:36:18 10° S
IRS-1C Rocket 4.1 05:27:34 10° NNE 05:32:51 87° WNW 05:38:07 10° SSW
Cosmos 1455 2.8 05:31:15 16° SW 05:33:49 35° W 05:37:18 10° N
Cosmos 2084 3.2 05:31:02 15° SW 05:34:19 72° NW 05:38:13 10° NNE
Cosmos 2112 Rocket 4.3 05:32:38 12° SW 05:37:26 51° WNW 05:42:39 10° N
Cosmos 1697 Rocket 2.7 05:32:31 10° NNW 05:38:12 81° WSW 05:43:51 10° SSE
Cosmos 1900 4.4 05:34:25 10° SSW 05:39:26 83° WNW 05:44:35 10° NNE
EO 1 Del DPAF 4.5 05:36:38 10° SSE 05:40:19 46° ENE 05:44:01 10° N
Lacrosse 4 Rocket 3.6 05:43:11 10° SSE 05:46:56 28° ESE 05:50:44 10° NE
CZ-4B DEB 4.4 05:42:20 10° N 05:47:43 56° WNW 05:53:03 10° SSW
PSLV R/B 4.3 05:44:38 10° N 05:48:32 33° WNW 05:52:22 10° SW
BREEZE M DEB (TANK) 3.2 05:47:28 11° W 05:49:25 27° SW 05:52:48 10° SSE
Abrixas 4.0 05:49:41 13° WSW 05:50:30 14° SW 05:52:03 10° S
Cosmos 2233 Rocket 4.0 05:46:44 10° SSW 05:52:46 61° W 05:58:50 10° N
Cosmos 2082 Rocket 3.0 05:49:27 10° WSW 05:54:27 33° WNW 05:59:30 10° N
ADEOS II 3.2 05:52:48 10° NNW 05:57:01 25° WNW 06:01:13 10° WSW
Cosmos 2056 Rocket 3.8 05:52:15 10° NNW 05:57:40 78° ENE 06:03:05 10° SSE
Meteor PRIRODA 4.0 05:57:35 10° N 06:01:06 45° WNW 06:04:35 10° SSW
PSLV R/B 3.6 05:58:24 10° W 06:01:29 43° SSW 06:04:36 10° SE
